Regional Weather Roundup
Issued by NWS Cleveland, OH

Home | Current Version | Previous Version | Graphics & Text | Print | Product List | Glossary On
Versions: 1 2 3 4 5 6 7 8 9 10 11 12 13 14 15 16 17 18 19 20 21 22 23 24 25 26 27 28 29 30 31 32 33 34 35 36 37 38 39 40 41 42 43 44 45 46 47 48 49 50
000
ASUS41 KCLE 182102
RWRCLE
OHIO REGIONAL WEATHER ROUNDUP
NATIONAL WEATHER SERVICE CLEVELAND, OH
500 PM EDT SAT APR 18 2015

NOTE: "FAIR" INDICATES FEW OR NO CLOUDS BELOW 12,000 FEET WITH NO
SIGNIFICANT WEATHER AND/OR OBSTRUCTIONS TO VISIBILITY.

OHZ001>008-015>018-024>027-034-035-043-044-182200-
   NORTHWEST OHIO

CITY           SKY/WX    TMP DP  RH WIND       PRES   REMARKS
DEFIANCE       CLOUDY    71  45  39 E16G26    30.03R
FINDLAY        CLOUDY    69  43  38 NE17G26   30.04R
TOLEDO EXPRESS CLOUDY    66  36  32 E18G26    30.07S
TOLEDO EXEC    CLOUDY    64  33  31 E16G25    30.09F
LIMA           PTSUNNY   76  50  40 E15       30.01F
$$

OHZ009>014-019>023-028>033-038-089-182200-
   NORTHEAST OHIO

CITY           SKY/WX    TMP DP  RH WIND       PRES   REMARKS
CLE-HOPKINS    CLOUDY    64  36  35 N14       30.11S
CLE-LAKEFRONT  PTSUNNY   54  43  66 NW3       30.09S
CUY CO. ARPT   PTSUNNY   66  37  34 NE14      30.10R
LORAIN-ELYRIA  CLOUDY    64  40  41 NE14      30.09S
ASHTABULA      SUNNY     67  36  31 NW12      30.09R
AKRON-CANTON   CLOUDY    73  44  35 N9        30.05F
WOOSTER        CLOUDY    71  46  40 N12       30.05F
MANSFIELD      CLOUDY    72  47  40 N13G18    30.05S
YOUNGSTOWN     PTSUNNY   71  45  39 NW16      30.06R
$$

OHZ042-051>053-060>062-070>072-077>081-182200-
  SOUTHWEST OHIO

CITY           SKY/WX    TMP DP  RH WIND       PRES   REMARKS
CINC-COVINGTON PTSUNNY   77  45  32 NE12      29.98F
CINC-LUNKEN    PTSUNNY   77  49  37 E12G17    29.97F
HAMILTON       PTSUNNY   77  50  38 E12       29.98F
DAYTON         PTSUNNY   76  47  35 E6        30.01F
WRIGHT-PAT AFB PTSUNNY   76  46  34 NE5       29.99F
DAYTON GENERAL CLOUDY    75  47  36 E7        29.99F
WILMINGTON     PTSUNNY   75  46  35 NE5       30.00F
$$

OHZ036-037-039>041-045>050-054>059-063>069-073>076-082>088-182200-
  CENTRAL AND SOUTHEAST OHIO

CITY           SKY/WX    TMP DP  RH WIND       PRES   REMARKS
COLUMBUS       CLOUDY    77  43  29 N10       30.00S
OSU AIRPORT    PTSUNNY   77  45  32 E8        30.00F
BOLTON FIELD   PTSUNNY   75  46  35 NW5       30.01
RICKENBACK AFB NOT AVBL
NEWARK         CLOUDY    78  41  26 VRB7      29.99F
MARION         CLOUDY    74  47  38 NE18      30.03S
LANCASTER      PTSUNNY   77  44  30 NE7       30.01S
ZANESVILLE     CLOUDY    75  41  29 N12       30.01S
NEW PHILLY     CLOUDY    78  44  29 N8        30.02F
$$


USA.gov is the U.S. government's official web portal to all federal, state and local government web resources and services.